Regional Weather Roundup
Issued by NWS Upton, NY

Current Version | Previous Version | Graphics & Text | Print | Product List | Glossary Off
Versions: 1 2 3 4 5 6 7 8 9 10 11 12 13 14 15 16 17 18 19 20 21 22 23 24 25 26 27 28 29 30 31 32 33 34 35 36 37 38 39 40 41 42 43 44 45 46 47 48 49 50

000
ASUS41 KOKX 260208
RWROKX

REGIONAL WEATHER ROUNDUP
NATIONAL WEATHER SERVICE NEW YORK NY
900 PM EST SAT FEB 25 2017

NOTE: "FAIR" INDICATES FEW OR NO CLOUDS BELOW 12,000 FEET WITH NO
SIGNIFICANT WEATHER AND/OR OBSTRUCTIONS TO VISIBILITY.

NYZ071-072-176-178-NJZ106-104-260300-
NEW YORK CITY METRO AREA

CITY           SKY/WX    TMP DP  RH WIND       PRES   REMARKS
Central Park   LGT RAIN  48  43  82 W8        29.61S
Wall St Helipt NOT AVBL
LaGuardia APRT LGT RAIN  52  42  69 NW13      29.58S
Kennedy INTL   LGT RAIN  52  46  80 NW14G21   29.60R
Breezy Point     N/A     46 N/A N/A NW12G18     N/A
Newark/Liberty LGT RAIN  50  43  77 NW12      29.60S
Teterboro      LGT RAIN  50  45  83 NW6       29.58S
$$

NYZ177-179-078>081-260300-
LONG ISLAND NEW YORK

CITY           SKY/WX    TMP DP  RH WIND       PRES   REMARKS
Jones Beach      N/A     48 N/A N/A NW17        N/A
Matinecock PT    N/A     46 N/A N/A NW15        N/A
Farmingdale    CLOUDY    49  45  86 N13G22    29.58R
MacArthur/ISP  CLOUDY    48  47  96 NW21G32   29.56R
Shirley        LGT RAIN  50  50 100 NW22G31   29.56R FOG
Westhampton    LGT RAIN  50  49  96 SW13      29.55S
Southampton    NOT AVBL
Bridgehampton  NOT AVBL
East Hampton   RAIN      49  49  99 SW8       29.51F
Montauk          N/A     49  49 100 S12G18    29.52R
$$

NYZ052-065-067-260300-
HUDSON VALLEY

CITY           SKY/WX    TMP DP  RH WIND       PRES   REMARKS
White Plains   CLOUDY    46  41  82 NW13      29.55F
Newburgh       MOCLDY    45  43  93 NW7       29.59R
Montgomery     MOCLDY    44  39  82 W8        29.59R
Poughkeepsie   RAIN      43  40  89 NE16      29.57F
Albany         LGT RAIN  38  34  85 W7        29.65S WCI  33
$$

NJZ001-105-106-008-010-013-015-019>022-104-260300-
NEW JERSEY

CITY           SKY/WX    TMP DP  RH WIND       PRES   REMARKS
Newark/Liberty LGT RAIN  50  43  77 NW12      29.60S
Teterboro      LGT RAIN  50  45  83 NW6       29.58S
Caldwell       CLOUDY    49  41  74 W5        29.61F
Somerville     MOCLDY    47  42  83 CALM      29.60R
Linden         NOT AVBL
Sussex         MOCLDY    45  39  79 CALM      29.61S
Andover          N/A     44  38  79 VRB3      29.61R
Trenton        MOCLDY    48  41  76 NW7       29.63R
Millville      CLOUDY    49  47  93 NW6       29.63S
Atlantic City  CLOUDY    50  46  86 NW8       29.63R
Wrightstown    MOCLDY    47  42  82 NW6       29.62R
Toms River     LGT RAIN  48  45  89 VRB5      29.63R
Belmar         LGT RAIN  48  45  89 W10       29.62R
$$

PAZ047>061-062-071-260300-
EASTERN PENNSYLVANIA

CITY           SKY/WX    TMP DP  RH WIND       PRES   REMARKS
Philadelphia   CLOUDY    51  44  77 NW10      29.65R
Allentown      PTCLDY    45  37  73 W7        29.64R
Scranton       CLOUDY    41  38  89 N9        29.64R
$$

CTZ002-004>006-009-010-012-RIZ004-006-007-MAZ004-011-015-260300-
SOUTHERN NEW ENGLAND
 IN CT

CITY           SKY/WX    TMP DP  RH WIND       PRES   REMARKS
Bradley INTL   LGT RAIN  46  42  86 NW14G20   29.56R
Hartford       RAIN      48  45  89 NW17G25   29.56R FOG
Danbury        LGT RAIN  45  41  86 VRB6      29.57R
Wtrbury/Oxford CLOUDY    46  39  76 NW9G23    29.58R
Bridgeport     CLOUDY    51  43  74 NW22G31   29.56R
Meriden        LGT RAIN  55  50  83 W6        29.52R
New Haven      CLOUDY    50  49  96 W12G23    29.55R
Chester        LGT RAIN  54  54 100 CALM      29.51F
Groton         LGT RAIN  48  47  96 SW5       29.53R VSB 3/4
Wilimantic     RAIN      56  54  93 W5G17     29.51R FOG

 IN RI

CITY           SKY/WX    TMP DP  RH WIND       PRES   REMARKS
Providence     DRZL/FOG  50  49  96 S6        29.50F VSB 1
Block Island   FOG       48  48 100 SW13      29.52R VSB 3/4
Westerly       LGT RAIN  50  47  89 S6        29.52R VSB 3/4
 IN MA

CITY           SKY/WX    TMP DP  RH WIND       PRES   REMARKS
Boston         CLOUDY    54  54 100 S12       29.46F FOG
Worcester      LGT RAIN  54  52  93 S13       29.47S FOG
Westfield      LGT RAIN  44  40  85 NW12      29.53R
Provincetown   CLOUDY    51  51 100 S9        29.49F FOG
Nantucket      LGT RAIN  46  46 100 SE8       29.52S VSB 1/2
$$

ANZ330-335-338-340-345-350-353-355-260300-
COASTAL MARINE OBSERVATIONS


STATION/POSITION TIME  SKY/WX   TEMP    WIND        PRES    VSBY  WAVE
                                AIR SEA DIR/SP/G                  HT/PER
                 (UTC)          (F)     (DEG/KT/KT) (MB)    (MI)  (FT/S)
NY HARB ENTRANCE 0050            49 44  270/ 23/ 33 1000.2          5/11
20 S FIRE ISLAND 0050            49 44  220/ 16/ 19  999.5          6/11
GREAT SOUTH BAY  NOT AVBL
23 SSW MONTAUK P 0050            48 45               999.4          6/11
15 E BARNEGAT LI 0130               45                N/A           5/11
HUDSON CANYON    0050               48               999.4          8/11
KINGS POINT      0136            47 41              1000.9
EXECUTION ROCKS  NOT AVBL
CENTRAL LI SOUND NOT AVBL
EASTERN LI SOUND NOT AVBL
ROBBINS REEF     0136            51     320/ 14/ 17 1001.7
$$


>>>>>>>>>>>>>>>>>>>>>>>>>>>> KEY <<<<<<<<<<<<<<<<<<<<<<<<<<<
>                                                          <
>     SKY/WX - Sky Condition/Present Weather               <
>     TMP    - Temperature in Fahrenheit                   <
>     DP     - Dew Point in Fahrenheit                     <
>     RH     - Relative Humidity in Percent                <
>     WIND   - Direction (from) and Speed in MPH           <
>     PRES   - Mean Sea Level Pressure (inches of Hg)      <
>     WCI    - Wind Chill Index                            <
>     VSB    - VISIBILITY IN MILES                         <
>     HX     - HEAT INDEX                                  <
>     TC     - TEMPERATURE IN CELSIUS                      <
>     VRB    - VARIABLE WIND DIRECTION                     <
>                                                          <
>>>>>>>>>>>>>>>>>>>>>>>>>>>> KEY <<<<<<<<<<<<<<<<<<<<<<<<<<<



USA.gov is the U.S. government's official web portal to all federal, state and local government web resources and services.